Location: Gaast
(52.9002°N, 5.8891°E)
Time: 09:35:53
(UTC+00:00)

YAOGAN 1 - Pass Details

Date: 18 November 2025
Orbit: 605 x 607 km, 97.8° (Epoch: 12 December)

Event Time Altitude Azimuth Distance (km) Brightness Sun altitude
Rises 16:43:46 0° 128° (SE) 2,861 5.7 -9.9°
Reaches altitude 10° 16:46:14 10° 115° (ESE) 1,961 4.7 -10.2°
Maximum altitude 16:49:39 24° 61° (ENE) 1,271 3.6 -10.7°
Drops below altitude 10° 16:53:06 10° 8° (N) 1,971 4.9 -11.2°
Sets 16:55:35 0° 355° (N) 2,880 5.9 -11.5°
